Weather History for KDUH - March, 2012

Change the Weather History Date:

Thursday, March 1, 2012

  Actual Average (KTOL) Record (KTOL)
Temperature  
Mean Temperature 38 °F 32 °F  
Max Temperature 41 °F 41 °F 65 °F (1997)
Min Temperature 36 °F 24 °F 2 °F (1960)
Degree Days  
Heating Degree Days 26 33  
Month to date heating degree days 33  
Since 1 July heating degree days 4609  
Cooling Degree Days 0 0  
Month to date cooling degree days 0  
Year to date cooling degree days 0  
Moisture  
Dew Point 32 °F    
Average Humidity 77    
Maximum Humidity 88    
Minimum Humidity 68    
Precipitation  
Precipitation 0.00 in 0.08 in 0.67 in (2007)
Month to date precipitation 0.08  
Year to date precipitation 4.20  
Snow  
Snow 0.00 in 0.30 in - ()
Month to date snowfall 0.3  
Since 1 July snowfall 30.8  
Snow Depth -    
Sea Level Pressure  
Sea Level Pressure 29.76 in    
Wind  
Wind Speed 11 mph (WSW)    
Max Wind Speed 16 mph    
Max Gust Speed 23 mph    
Visibility 9 miles    
Events Rain    
T = Trace of Precipitation, MM = Missing Value Source: NWS Daily Summary

Daily Weather History Graph

Daily Weather History Graph

Search for Another Location

Airport or City:

Trip Planner

Search our weather history database for the weather conditions in past years. The results will help you decide how hot, cold, wet, or windy it might be!

Date:

Astronomy

Mar. 01, 2012 Rise Set
Actual Time 7:08 AM EST 6:25 PM EST
Civil Twilight 6:40 AM EST 6:53 PM EST
Nautical Twilight 6:08 AM EST 7:25 PM EST
Astronomical Twilight 5:36 AM EST 7:58 PM EST
Moon 11:40 AM EST (3/1) 2:10 AM EST (3/1)
Length of Visible Light 12h 12m
Length of Day
11h 16m
First Quarter, 56% of the Moon is Illuminated
Mar 1
First Quarter
Mar 8
Full
Mar 14
Last Quarter
Mar 22
New
Mar 30
First Quarter

Hourly Weather History & Observations

Time (EST) Temp. Windchill Dew Point Humidity Pressure Visibility Wind Dir Wind Speed Gust Speed Precip Events Conditions
12:15 AM 41.4 °F 33.3 °F 34.7 °F 77% 29.58 in 10.0 mi West 16.1 mph 23.0 mph N/A   Overcast
12:35 AM 40.5 °F 33.6 °F 34.2 °F 78% 29.59 in 10.0 mi West 11.5 mph 17.3 mph N/A   Overcast
12:55 AM 40.1 °F 33.6 °F 33.8 °F 78% 29.59 in 10.0 mi WSW 10.4 mph 18.4 mph N/A   Overcast
1:15 AM 40.6 °F 34.3 °F 32.5 °F 73% 29.59 in 10.0 mi WSW 10.4 mph 23.0 mph N/A   Overcast
1:35 AM 40.3 °F 32.6 °F 32.0 °F 72% 29.59 in 10.0 mi WSW 13.8 mph 20.7 mph N/A   Overcast
2:15 AM 39.4 °F 31.8 °F 30.0 °F 69% 29.60 in 10.0 mi WSW 12.7 mph 19.6 mph N/A   Overcast
2:35 AM 39.0 °F 32.3 °F 29.1 °F 68% 29.61 in 10.0 mi WSW 10.4 mph 19.6 mph N/A   Overcast
3:15 AM 38.3 °F 31.4 °F 30.2 °F 73% 29.62 in 10.0 mi West 10.4 mph 20.7 mph N/A   Overcast
3:35 AM 38.1 °F 30.2 °F 30.7 °F 75% 29.62 in 10.0 mi WSW 12.7 mph 18.4 mph N/A   Overcast
4:15 AM 37.4 °F 29.8 °F 31.1 °F 78% 29.63 in 10.0 mi WSW 11.5 mph 17.3 mph N/A   Overcast
4:35 AM 37.4 °F 28.9 °F 30.7 °F 77% 29.64 in 10.0 mi West 13.8 mph 20.7 mph N/A   Overcast
4:55 AM 37.4 °F 30.3 °F 30.9 °F 77% 29.65 in 10.0 mi WSW 10.4 mph 16.1 mph N/A   Overcast
5:15 AM 37.0 °F 30.4 °F 31.1 °F 79% 29.65 in 10.0 mi WSW 9.2 mph 19.6 mph N/A   Overcast
5:35 AM 36.9 °F 29.1 °F 31.1 °F 80% 29.65 in 10.0 mi WSW 11.5 mph 17.3 mph N/A   Overcast
5:55 AM 37.0 °F 28.5 °F 31.1 °F 79% 29.66 in 10.0 mi WSW 13.8 mph - N/A   Overcast
6:15 AM 37.4 °F 30.3 °F 31.1 °F 78% 29.67 in 10.0 mi WSW 10.4 mph 20.7 mph N/A   Overcast
6:35 AM 36.5 °F 28.7 °F 31.8 °F 83% 29.68 in 5.0 mi WSW 11.5 mph 20.7 mph N/A   Haze
6:55 AM 36.1 °F 28.7 °F 32.0 °F 85% 29.69 in 7.0 mi WSW 10.4 mph - N/A   Overcast
7:15 AM 36.1 °F 28.2 °F 32.0 °F 85% 29.69 in 7.0 mi WSW 11.5 mph - N/A   Overcast
7:35 AM 36.0 °F 29.0 °F 32.0 °F 86% 29.70 in 5.0 mi WSW 9.2 mph 16.1 mph N/A Rain Light Rain
8:15 AM 36.0 °F 29.0 °F 32.2 °F 86% 29.72 in 5.0 mi WSW 9.2 mph - N/A Rain Light Rain
8:35 AM 36.5 °F 30.3 °F 32.0 °F 84% 29.73 in 10.0 mi West 8.1 mph - N/A   Overcast
8:55 AM 37.4 °F 31.4 °F 31.8 °F 80% 29.74 in 10.0 mi West 8.1 mph 18.4 mph N/A   Overcast
9:15 AM 37.6 °F 31.6 °F 32.0 °F 80% 29.74 in 10.0 mi West 8.1 mph - N/A   Overcast
9:35 AM 37.4 °F 29.3 °F 31.3 °F 79% 29.75 in 10.0 mi West 12.7 mph 20.7 mph N/A   Overcast
10:15 AM 37.4 °F 32.1 °F 32.0 °F 81% 29.76 in 7.0 mi West 6.9 mph - N/A   Overcast
10:35 AM 37.0 °F 30.4 °F 32.9 °F 85% 29.77 in 2.5 mi WSW 9.2 mph 17.3 mph N/A   Overcast
10:55 AM 36.9 °F 30.7 °F 33.6 °F 88% 29.78 in 4.0 mi WSW 8.1 mph - N/A   Overcast
11:35 AM 37.8 °F 29.8 °F 34.2 °F 87% 29.79 in 7.0 mi WSW 12.7 mph 18.4 mph N/A   Overcast
11:55 AM 38.8 °F 32.6 °F 34.3 °F 84% 29.80 in 10.0 mi West 9.2 mph 18.4 mph N/A   Overcast
12:15 PM 40.1 °F 32.4 °F 34.5 °F 80% 29.81 in 10.0 mi West 13.8 mph 19.6 mph N/A   Overcast
12:55 PM 40.8 °F 32.9 °F 33.1 °F 74% 29.80 in 10.0 mi West 15.0 mph 20.7 mph N/A   Overcast
1:15 PM 41.7 °F 35.2 °F 33.6 °F 73% 29.81 in 10.0 mi West 11.5 mph 19.6 mph N/A   Overcast
1:35 PM 41.0 °F 34.7 °F 32.5 °F 72% 29.81 in 10.0 mi West 10.4 mph 18.4 mph N/A   Overcast
1:55 PM 41.2 °F 35.5 °F 32.7 °F 72% 29.82 in 10.0 mi West 9.2 mph 17.3 mph N/A   Overcast
2:15 PM 41.5 °F 35.0 °F 32.4 °F 70% 29.82 in 10.0 mi West 11.5 mph 18.4 mph N/A   Overcast
2:35 PM 41.4 °F 35.7 °F 32.0 °F 69% 29.82 in 10.0 mi West 9.2 mph - N/A   Overcast
2:55 PM 41.5 °F 35.0 °F 32.2 °F 69% 29.83 in 10.0 mi West 11.5 mph 19.6 mph N/A   Overcast
3:14 PM 41.5 °F 35.0 °F 32.0 °F 69% 29.83 in 10.0 mi West 11.5 mph - N/A   Overcast
3:35 PM 41.0 °F 33.9 °F 32.0 °F 70% 29.84 in 10.0 mi West 12.7 mph 16.1 mph N/A   Overcast
3:55 PM 41.0 °F 35.8 °F 32.0 °F 70% 29.84 in 10.0 mi West 8.1 mph - N/A   Overcast
4:15 PM 41.0 °F 36.4 °F 32.0 °F 70% 29.85 in 10.0 mi West 6.9 mph - N/A   Overcast
4:35 PM 40.6 °F 33.8 °F 32.0 °F 71% 29.85 in 10.0 mi WSW 11.5 mph - N/A   Overcast
4:55 PM 40.3 °F 34.4 °F 32.0 °F 72% 29.85 in 10.0 mi WSW 9.2 mph - N/A   Overcast
5:15 PM 40.3 °F 35.5 °F 32.5 °F 74% 29.85 in 10.0 mi WSW 6.9 mph - N/A   Overcast
5:54 PM 39.7 °F 34.3 °F 32.9 °F 77% 29.87 in 10.0 mi WSW 8.1 mph - N/A   Overcast
6:35 PM 39.4 °F 33.8 °F 32.9 °F 78% 29.87 in 10.0 mi SW 8.1 mph - N/A   Overcast
6:55 PM 39.4 °F 35.2 °F 32.7 °F 77% 29.88 in 10.0 mi SW 5.8 mph - N/A   Overcast
7:15 PM 39.4 °F 36.1 °F 32.9 °F 78% 29.88 in 10.0 mi WSW 4.6 mph - N/A   Overcast
7:34 PM 39.2 °F 37.0 °F 32.5 °F 77% 29.88 in 10.0 mi SW 3.5 mph - N/A   Overcast
7:55 PM 39.4 °F - 32.2 °F 75% 29.89 in 10.0 mi Calm Calm - N/A   Overcast
8:15 PM 39.4 °F - 32.4 °F 76% 29.89 in 10.0 mi Calm Calm - N/A   Overcast
8:34 PM 39.4 °F - 32.0 °F 75% 29.89 in 10.0 mi Calm Calm - N/A   Overcast
8:55 PM 39.2 °F - 32.2 °F 76% 29.89 in 10.0 mi Calm Calm - N/A   Overcast
9:14 PM 39.2 °F - 32.2 °F 76% 29.88 in 10.0 mi Calm Calm - N/A   Overcast
9:34 PM 39.2 °F 35.9 °F 32.0 °F 75% 29.89 in 10.0 mi South 4.6 mph - N/A   Overcast
9:55 PM 39.2 °F 37.0 °F 32.0 °F 75% 29.89 in 10.0 mi South 3.5 mph - N/A   Overcast
10:14 PM 39.0 °F 36.8 °F 32.0 °F 76% 29.88 in 10.0 mi South 3.5 mph - N/A   Overcast
10:35 PM 38.8 °F 36.5 °F 32.0 °F 76% 29.89 in 10.0 mi South 3.5 mph - N/A   Overcast
10:55 PM 38.7 °F - 32.0 °F 77% 29.89 in 10.0 mi Calm Calm - N/A   Overcast
11:14 PM 37.8 °F - 31.6 °F 79% 29.89 in 10.0 mi Calm Calm - N/A   Scattered Clouds
11:35 PM 35.8 °F - 31.6 °F 85% 29.88 in 10.0 mi Calm Calm - N/A   Clear
11:55 PM 34.9 °F - 31.1 °F 86% 29.88 in 10.0 mi Calm Calm - N/A   Clear